Regional Weather Roundup
Issued by NWS

Home | Current Version | Previous Version | Text Only | Print | Product List | Glossary On
Versions: 1 2 3 4 5 6 7 8 9 10 11 12 13 14 15 16 17 18 19 20 21 22 23 24 25 26 27
000
ASUS45 KBOU 222307
RWRCO

WEATHER ROUNDUP FOR COLORADO
NATIONAL WEATHER SERVICE DENVER/BOULDER CO
500 PM MDT SUN OCT 22 2017

NOTE: "FAIR" INDICATES FEW OR NO CLOUDS BELOW 12000 FEET WITH NO
SIGNIFICANT WEATHER AND/OR OBSTRUCTIONS TO VISIBILITY.

COZ001>005-013-030-031-230000-
...NORTHWEST COLORADO...

CITY           SKY/WX    TMP DP  RH WIND       PRES   REMARKS
CRAIG          FAIR      56  27  32 W13       30.32F
HAYDEN         FAIR      55  31  39 W10       30.35F
MEEKER         FAIR      59  23  25 S13G22    30.35R
RABBIT EARS PA FAIR      32  30  93 W10G18    30.43F WCI  24
STEAMBOAT SPGS FAIR      51  28  41 NW3       30.34F
WALDEN         NOT AVBL
$$

COZ006>008-011-230000-
...WEST CENTRAL VALLEYS...

CITY           SKY/WX    TMP DP  RH WIND       PRES   REMARKS
GRAND JUNCTION FAIR      61  19  19 W7        30.36R
MONTROSE       FAIR      62  24  23 N5        30.38F
EAGLE          FAIR      58  23  26 W18       30.37S
RIFLE          FAIR      60  24  25 E6        30.36S
DELTA          FAIR      66  20  17 SW3       30.37R
NUCLA          FAIR      63  19  19 N5        30.43S
$$

COZ017>023-064>068-230000-
...SOUTHWEST COLORADO...

CITY           SKY/WX    TMP DP  RH WIND       PRES   REMARKS
DURANGO        FAIR      64  21  19 SW14      30.36F
CORTEZ         FAIR      64  17  16 W18       30.39R
PAGOSA SPRINGS FAIR      59  13  16 SW6       30.43S
TELLURIDE      NOT AVBL
WOLF CREEK PAS FAIR      37  14  38 SW10G16   30.65R
$$

COZ009-010-012-014-032>034-037-058>063-230000-
...CENTRAL COLORADO...

CITY           SKY/WX    TMP DP  RH WIND       PRES   REMARKS
ASPEN          FAIR      54  25  32 N8        30.41R
BUENA VISTA    FAIR      61  17  18 W17G24    30.32S
COPPER MTN     FAIR      41  18  38 NW17G29   30.54S
BERTHOUD PASS  FAIR      32  21  64 NW45G67   30.44F WCI  15
COTTONWOOD PAS FAIR      55  18  22 W18G36    30.42S
GUNNISON       FAIR      56  23  27 SW14G21   30.40S
KREMMLING      FAIR      61  23  23 W15       30.34F
LEADVILLE      FAIR      45  19  35 N9G18     30.45S
MONARCH PASS   FAIR      36  21  55 W41G51    30.61F
SALIDA         FAIR      62  21  20 W17G31    30.37S
SUNLIGHT       FAIR      36  23  60 SW15G26   30.55S
WILKERSON PASS FAIR      45  16  31 W10G18    30.49R
$$

COZ069>075-230000-
...SAN LUIS VALLEY/SANGRE DE CRISTO MOUNTAINS...

CITY           SKY/WX    TMP DP  RH WIND       PRES   REMARKS
ALAMOSA        FAIR      58  17  20 CALM      30.36S
DEL NORTE      FAIR      58  20  22 E7        30.38S
LA VETA PASS   FAIR      46  19  34 S26G39    30.53R
SAGUACHE       FAIR      59  21  23 NW18G28   30.37F
$$

COZ035-036-038>040-230000-
...NORTHERN COLORADO FRONT RANGE...

CITY           SKY/WX    TMP DP  RH WIND       PRES   REMARKS
DENVER INTL AP PTSUNNY   65  22  19 W9        30.10R
DMNS CITY PARK   N/A     65  20  17 N8        30.10F
AURORA         PTSUNNY   63  22  20 W6        30.12S
FRONT RANGE AP PTSUNNY   66  25  20 SW5       30.12
ERIE MUNI ARPT FAIR      66  16  14 SW3       30.14S
BOULDER MUN AP FAIR      70  23  17 W6G17     30.08F
CENTENNIAL     PTSUNNY   63  18  17 SW8       30.13S
BROOMFIELD     PTSUNNY   66  19  16 W31G43    30.11F
FORT COLLINS   FAIR      67  31  26 E7        30.08S
LONGMONT       FAIR      73  24  16 W9G18     30.09F
$$

COZ041-046-047-076>085-087-088-230000-
...PIKES PEAK/PALMER DIVIDE AND SOUTHERN FOOTHILLS...

CITY           SKY/WX    TMP DP  RH WIND       PRES   REMARKS
COLO. SPRINGS  PTSUNNY   67  26  21 S5        30.16F
A. F. ACADEMY  FAIR      65  23  20 S6        30.17F
SCHRIEVER AFB  FAIR      64  22  20 CALM      30.17F
CHEYENNE MTN   FAIR      60  25  26 S7        30.14F
ELLICOTT         N/A    N/A N/A N/A S8        30.16S
FALCON         FAIR      63  21  19 CALM      30.20S
FORT CARSON    FAIR      67  25  21 SE6       30.13F
LIMON          FAIR      67  25  20 NW7       30.11S
MONUMENT HILL  FAIR      54  25  32 N5        30.22R
CANON CITY     FAIR      75  27  16 W10G16    30.10F
WALSENBURG     FAIR      72  23  16 W17G24    30.18S
TRINIDAD       FAIR      67  25  20 S9        30.16F
$$

COZ042>045-048>051-090-091-230000-
...NORTHEAST COLORADO...

CITY           SKY/WX    TMP DP  RH WIND       PRES   REMARKS
GREELEY ARPT   FAIR      69  28  21 W5        30.07F
AKRON          FAIR      65  25  22 W9        30.06F
BURLINGTON     FAIR      67  22  18 S13       30.07F
WRAY           NOT AVBL
YUMA           NOT AVBL
STERLING       FAIR      68  28  22 W8        30.01F
HOLYOKE        FAIR      68  27  21 W8        30.01F
FORT MORGAN    FAIR      66  23  19 W3        30.07S
$$

COZ086-089-092>099-230000-
...SOUTHEAST COLORADO...

CITY           SKY/WX    TMP DP  RH WIND       PRES   REMARKS
PUEBLO         FAIR      71  27  19 E6        30.07F
LA JUNTA       FAIR      71  24  17 SW5       30.09S
LAMAR          FAIR      70  23  17 W7        30.07R
SPRINGFIELD      N/A     65  26  23 S8        30.11F
$$




USA.gov is the U.S. government's official web portal to all federal, state and local government web resources and services.